Volver al catálogo

GOES 17

ActivoMeteoGEO
NORAD 43226·PAYLOAD·🇺🇸 United States

Lanzado Mar 1, 2018 desde Cape Canaveral Space Force Station

Loading…

TLE

ActualizadoSource: Space-Track

Época: Sep 14, 2026, 21:55 UTC

1 43226U 18022A   26257.91376737 -.00000190  00000-0  00000-0 0  9996
2 43226   1.1622  84.1992 0000784 125.8098  23.3471  1.00272215 31325

Sigue GOES 17 en tiempo real con AllMySat

Download on the App Store